COSMOS 1691 DEB, 18282

Orbit data source: Space-Track

COSMOS 1691 DEB, 18282 is space debris in LEO originally from a launch on Wed, 09 Oct 1985 UTC launched from the Plesetsk Missile And Space Complex (PKMTR). Debris objects in space refer to the collection of defunct objects orbiting the Earth. Examples of debris include non-operational satellites, rocket bodies, and fragments generated from explosions, collisions, or faulty payload assembly.

Loading next visibility...
Identifier
18282, 1985-094T
Orbit
LEO
Country
Flag of CISCIS
Related business
Manufacturer
Unknown
Mission
Spacecraft
Bus & Motor
Unknown
Mass
Unknown
Launch date (UTC)
1985-10-09 (40 years ago)
Launch vehicle
Unknown
Launch site
Plesetsk Missile And Space Complex (PKMTR)
Object type
Payload
Rocket body
Debris
Shape & HBR
Unknown shape, 0.1 m
Radar Cross Section
Small (<0.1 m²)

Expand to show TLE details & history
Last TLE update: 20 hours ago

TLE from 20 hours ago
0 COSMOS 1691 DEB
1 18282U 85094T   25340.93729353  .00001089  00000-0  48410-2 0  9999
2 18282  82.6222 298.0277 0006898 299.9151 119.2085 12.78479499861558
Epoch: 2025-12-06T22:29Z
TLE epoch observation values (Epoch: 2025-12-06T22:29:42.160Z)
Latitude
58.49643°
Longitude
-103.2207°
Altitude
1,360.031 km
Speed
7.183 km/s
True Right ascension
20h 40m 39s
True Declination
58° 21' 18"
Sunlit
Object was in daylight at epoch
Visualization orbit readout
Latitude
Unknown
Longitude
Unknown
Altitude
Unknown
Speed
Unknown
Apparent Right ascension
Unknown
Apparent Declination
Unknown
Sunlit
N/A
Visualization observer readout
Local Sidereal Time
16:20:29
Azimuth
Unknown
Elevation
Unknown
Doppler factor
Unknown
Orbital elements
Apogee altitude
1,350.213 km
Perigee altitude
1,339.558 km
Semi-major axis
7,723.023 km
Eccentricity
0.00069
Inclination
82.6222°
RAAN
298.0277°
Arg. of periapsis
299.9151°
True anomaly
119.27747°
Mean anomaly
119.2085°
Eccentric anomaly
119.24299°
Mean motion
3.19788 °/min
Orbital period
112.57 mins
BSTAR
0.004841
Loading maneuver chart data...
Computing Atmospheric mass density...
Loading historical data...
Loading historical data...
Loading historical data...
Loading historical data...
Loading historical data...
Loading historical data...
Loading historical data...

Documentation

Showing up to 5 results
|